www.pogodaiklimat.ru

Погода и климат >> Архив погоды >> Иран >> Ilam


ПОГОДА в Ilam

  • Прогноз погоды в Ilam
  • Монитор погоды в Ilam
  • Климат города

АРХИВ ПОГОДЫ в Ilam

Время (UTC), дата Ветер
(напр.,м/с)
 
Видим.   Явления Облачность Т
(С)
Тd
(С)
f
(%)
Тe
(С)
Тes
(С)
Комфортность P
(гПа)
Po
(гПа)
Тmin
(С)
Tmax
(С)
R
(мм)
R24
(мм)
S
(см)
00 20.05 В 2 10 км ясно +14.4 +6.3 58 +14 +14 1011.0 868.2
03 20.05 В 2 10 км 6/0
[Ci fib]
+17.2 +7.3 52 +18 +18 1011.2 868.5 +13.4
06 20.05 ЮВ 2 11 км 3/0
[Ci fib]
+24.5 +8.5 36 +25 +37 комфорт 1011.7 869.3
09 20.05 З 3 10 км 4/0
[Ci sp]
+27.6 +6.9 27 +27 +43 жарко 1011.7 869.3
12 20.05 СЗ 3 10 км 3/0
[Ci sp]
+28.6 +6.1 24 +27 +37 жарко 1010.8 868.3
15 20.05 ЮЗ 2 10 км 3/0
[Ci fib]
+27.2 +7.6 29 +27 +28 жарко 1010.1 867.6 +29.8
18 20.05 С 1 10 км 4/0
[Cs]
+19.2 +7.7 47 +21 +21 комфорт 1010.2 868.1
00 21.05 ЮВ 2 10 км 1/0
[Ci fib]
+15.7 +7.2 57 +16 +16 1010.2 868.1
03 21.05 В 2 10 км 6/0
[Cs]
+16.7 +7.9 56 +17 +18 1011.1 868.8 +14.1
06 21.05 ЮВ 2 10 км ясно +26.4 +8.4 32 +26 +39 жарко 1011.4 869.4
09 21.05 З 4 10 км 4/1 1200 м
[Cu hum Ci sp]
+28.9 +7.5 26 +28 +40 жарко 1011.5 869.5
12 21.05 СЗ 5 10 км 5/3 1200 м
[Cu hum Ci sp]
+28.7 +6.2 24 +28 +32 жарко 1011.0 868.8
15 21.05 З 1 10 км 8/0
[Ac trans Cs]
+26.7 +8.7 32 +27 +27 жарко 1010.7 868.3 +29.3
18 21.05 В 2 10 км 5/0
[Cs]
+20.0 +7.4 44 +22 +22 комфорт 1011.1 869.1
21 21.05 В 2 10 км ясно +16.3 +7.3 55 +16 +16 1010.5 868.7
00 22.05 В 2 10 км ясно +17.9 +7.3 50 +18 +18 1010.1 868.5
03 22.05 Ю 5 10 км 9/5 1050 м
[Cb calv Ac As]
+23.1 +5.1 31 +23 +23 комфорт 1011.0 869.8 +16.0
06 22.05 З 2 10 км 10/5 1200 м
[Cb calv As op]
+22.4 +9.2 43 +24 +25 комфорт 1014.1 871.0
09 22.05 В 4 10 км 9/4 1350 м
[Sc Ac As]
+27.5 +6.2 26 +27 +30 жарко 1012.6 869.9
12 22.05 Ю 4 10 км 8/5 1200 м
[Cb calv Ac As]
+27.6 +5.8 25 +27 +29 жарко 1010.4 868.5
15 22.05 ЮЗ 3 8000 м мгла {гроза} 5/5 1200 м
[Cu Sc]
+26.4 +6.4 28 +26 +26 жарко 1008.9 868.0 +29.1
18 22.05 штиль 0 10 км 4/4 1200 м
[Sc]
+20.7 +6.6 40 +21 +21 комфорт 1011.4 868.9
21 22.05 В 2 10 км 3/3 1350 м
[Cu hum]
+17.4 +7.5 52 +18 +18 1011.3 869.2
00 23.05 В 1 10 км 1/1 1350 м
[Cu hum]
+15.8 +6.7 55 +17 +17 1010.4 868.2
03 23.05 ЮВ 2 10 км 3/0
[Ac trans]
+16.3 +7.3 55 +16 +17 1010.7 868.2 +13.9
06 23.05 ЮВ 2 10 км 1/1 1350 м
[Cu hum]
+25.2 +8.2 34 +26 +37 жарко 1011.0 869.2
09 23.05 Ю 4 10 км 5/5 1200 м
[Cu Sc Ac As]
+27.4 +8.3 30 +27 +34 жарко 1011.1 869.0
12 23.05 ЮЗ 4 8000 м пыль 5/5 1200 м
[Cb calv]
+27.7 +5.9 25 +27 +31 жарко 1010.0 867.6
15 23.05 ЮЗ 3 6000 м пыль 4/4 1200 м
[Sc Ci sp]
+25.1 +6.8 31 +25 +25 комфорт 1009.8 867.1 +28.5
18 23.05 СВ 4 8000 м пыль ясно +20.2 +8.2 46 +21 +21 комфорт 1009.4 867.7
21 23.05 ЮВ 3 6000 м пыль ясно +17.3 +8.4 56 +17 +17 1008.6 866.7
00 24.05 В 2 6000 м пыль 1/0
[Ac As]
+15.9 +8.4 61 +16 +16 1007.7 865.9
03 24.05 В 2 7000 м пыль 6/1 1200 м
[Cu hum Ac trans]
+17.4 +9.6 60 +18 +19 1007.8 865.8 +15.6
06 24.05 ЮВ 2 8000 м пыль 9/5 1050 м
[Cb calv Ac As]
+24.4 +9.2 38 +25 +28 комфорт 1008.6 866.9
09 24.05 В 2 7000 м пыль 9/5 1050 м
[Cb calv Ac As]
+27.6 +7.5 28 +27 +32 жарко 1008.1 866.2
12 24.05 В 3 7000 м пыль 10/5 1050 м
[Cb calv As op]
+26.5 +8.0 31 +26 +27 жарко 1006.6 864.6
15 24.05 Ю 2 7000 м пыль 8/3 1350 м
[Sc Ac As]
+24.4 +11.0 43 +26 +26 жарко 1005.8 864.0 +28.8
18 24.05 Ю 2 7000 м пыль 8/3 1350 м
[Sc Ac As]
+21.2 +9.8 48 +23 +23 комфорт 1005.2 864.2
21 24.05 Ю 2 7000 м пыль 3/0
[Ci sp]
+20.7 +9.6 49 +23 +23 комфорт 1004.3 864.0
00 25.05 ЮВ 1 7000 м пыль ясно +16.1 +9.5 65 +17 +17 1005.1 863.4
03 25.05 Ю 2 8000 м пыль 1/1 1500 м
[Cu hum]
+19.4 +9.0 51 +21 +22 комфорт 1004.8 863.4 +15.8
06 25.05 ЮВ 3 7000 м пыль 3/3 1500 м
[Cu hum]
+26.2 +9.1 34 +27 +34 жарко 1003.8 863.3
09 25.05 Ю 4 7000 м пыль 3/3 1500 м
[Cu hum]
+28.8 +6.8 25 +28 +38 жарко 1002.9 862.9
12 25.05 Ю 5 5000 м пыль 4/4 1350 м
[Cu hum]
+28.6 +8.8 29 +28 +32 жарко 1004.2 863.1
15 25.05 ЮЗ 3 4000 м пыль 1/1 1350 м
[Cu hum]
+26.1 +6.7 29 +26 +26 жарко 1004.1 863.2 +30.1
18 25.05 СЗ 2 5000 м пыль ясно +21.2 +8.8 45 +22 +22 комфорт 1005.7 865.1
21 25.05 С 1 5000 м пыль 4/0
[Ac trans]
+18.4 +8.7 53 +20 +20 1006.7 865.7
00 26.05 В 2 5000 м пыль ясно +16.9 +7.8 55 +17 +17 1006.9 865.6
03 26.05 В 1 8000 м пыль ясно +17.1 +8.3 56 +18 +19 1009.0 866.8 +14.3
06 26.05 В 1 8000 м пыль ясно +26.5 +8.0 31 +26 +42 жарко 1008.4 867.2
09 26.05 З 3 10 км 3/1 1350 м
[Cu hum Cc]
+27.8 +7.0 27 +27 +42 жарко 1009.2 867.7
12 26.05 З 5 10 км 5/5 1350 м
[Cu hum]
+28.8 +5.0 22 +27 +31 жарко 1008.8 867.1
15 26.05 З 4 10 км ясно +26.7 +5.6 26 +26 +26 жарко 1009.4 867.1 +29.5
18 26.05 штиль 0 10 км ясно +19.9 +7.3 44 +21 +21 комфорт 1009.5 867.9
21 26.05 ЮВ 1 10 км ясно +17.8 +6.7 48 +19 +19 868.5

 

Местоположение метеостанции Ilam (Иран): широта 33.63 долгота 46.43 высота над уровнем моря 1337 м.

В архиве по умолчанию представлена погода в Ilam за последнюю неделю. Архивные данные за месяц целиком и за предыдущие месяцы, начиная с января 2011 года, Вы можете получить, выбрав интересующий диапазон дат из раскрывающегося списка и нажав кнопку "Ввод!".


*Определитесь, кто Вы:
робот инопланетянин человек

Внимание! Время в таблицах - всемирное. Для получения местного времени необходимо прибавить поправку, которая в Ilam равна 3.5 ч.

Смотрите также архив погоды в соседних городах и на ближайших метеорологических станциях:

Погода в Badrah (Ирак) (74 км)
Погода в Kermanshah (Иран) (95 км)
Погода в Khanaqin (Ирак) (119 км)
Погода в Ali Al-Gharbi (Ирак) (132 км)
Погода в Ubaydah Bin Al Jarrah (Ирак) (142 км)
Погода в Azizyah (Ирак) (149 км)
Погода в Ayn Al-Tamar (Ирак) (159 км)
Погода в Kut-Al-Hai (Ирак) (166 км)
Погода в Al-Khalis (Ирак) (177 км)
Погода в Halabcha (Ирак) (180 км)

Пояснения к столбцам:

Ветер - указаны скорость ветра в м/с - средняя за 10 мин, порывы в срок и между сроками (в фигурных скобках) и направление, откуда дует ветер: С - северный, СВ - северо-восточный, В - восточный, ЮВ - юго-восточный, Ю - южный, ЮЗ - юго-западный, З - западный, СЗ - северо-западный.
Видимость - горизонтальная дальность видимости в метрах или километрах. При видимости от 1 до 10 км при отсутствии осадков обычно наблюдается дымка, при ухудшении видимости до 1 км и менее - туман. В сухую погоду видимость может ухудшаться дымом, пылью или мглою.
Явления - указаны атмосферные явления, наблюдавшиеся в срок или в последний час перед сроком; фигурными скобками обозначены явления, наблюдавшиеся между сроками (за 1-3 часа до срока); квадратными скобками обозначены град или гололедные отложения с указанием их диаметра в мм.
Облачность - указаны через наклонную черту общая и нижняя облачность в баллах и высота нижней границы облаков в метрах; квадратными скобками обозначены формы облаков: Ci - перистые, Cs - перисто-слоистые, Cc - перисто-кучевые, Ac - высококучевые, As - высокослоистые, Sc - слоисто-кучевые, Ns - слоисто-дождевые, Cu - кучевые, Cb - кучево-дождевые. Подробнее классификацию облаков см. в Атласе облаков (PDF).
T - Температура воздуха - температура, измеренная на высоте 2 м над землей.
Td - Температура точки росы - температура, при понижении до которой содержащийся в воздухе водяной пар достигнет насыщения.
f - Относительная влажность воздуха - влажноcть воздуха, измеренная на высоте 2 м над землей.
Te - Эффективная температура - температура, которую ощущает одетый по сезону человек в тени. Характеристика душности погоды. При расчете учитывается влияние влажности воздуха и скорости ветра на теплоощущения человека.
Tes - Эффективная температура на солнце - температура, которую ощущает человек, с поправкой на солнечный нагрев. Характеристика знойности погоды. Зависит от высоты солнца над горизонтом, облачности и скорости ветра. Ночью, в пасмурную погоду, а также при ветре 12 м/с и более поправка равна нулю.
P - Атмосферное давление - приведенное к уровню моря атмосферное давление.
Po - Атмосферное давление - измеренное на уровне метеостанции атмосферное давление.
Tmin - Минимальная температура - минимум температуры воздуха на высоте 2 м над землей.
Tmax - Максимальная температура - максимум температуры воздуха на высоте 2 м над землей.
R - Количество осадков - Количество выпавших осадков за период времени, мм. При наведении курсора мыши на число - период времени, за который выпало указанное количество осадков.
R24 - Количество осадков - Количество выпавших осадков за 24 часа, мм.
S - Снежный покров - Высота снежного покрова, см. При наведении курсора мыши на число - состояние снежного покрова и степень покрытия местности в баллах.